Tracking 29510 objects as of 15-Sep-2024
HD Live streaming from Space Station
objects crossing your sky now

STARLINK-1283

Track STARLINK-1283 now!
10-day predictions
STARLINK-1283 is classified as:


NORAD ID: 45389
Int'l Code: 2020-019AF
Perigee: 553.7 km
Apogee: 555.1 km
Inclination: 53.1 °
Period: 95.6 minutes
Semi major axis: 6925 km
RCS: Unknown
Launch date: March 18, 2020
Source: United States (US)
Launch site: AIR FORCE EASTERN TEST RANGE (AFETR)
Your satellite tracking list
Your tracking list is empty




NASA's NSSDC Master Catalog

Two Line Element Set (TLE):
1 45389U 20019AF  24259.44946435 -.00000443  00000-0 -10844-4 0  9996
2 45389  53.0546  51.8492 0001028  90.9762 269.1345 15.06387032248589
Source of the keplerian elements: AFSPC